Date String (YYYY-MM-DD hh:mm:ss) UTC,Instrument flags,Ambient pressure (hPa),Sample flow (lpm),Bypass flow (lpm),Sample temperature (°C),Ambient temperature (°C),ASC tube jacket temperature (°C),LED temperature (°C),Box temperature (°C),Sample RH (%),Span deviation,Mass concentration (μg/m³),Mass concentration (μg/m³),Mass concentration (μg/m³)
DateTimeUTC,F1_M11,P_M11,Q1_M11,Q2_M11,T1_M11,T2_M11,T3_M11,T4_M11,T5_M11,U1_M11,ZSPAN_M11,X0_M11,X2_M11,X1_M11
2023-05-25 06:00:00,,0829.9,5.01,0.00,29.8,28.1,00.0,38.2,31.3,22.8,0003.5,0013.75,0008.49,0008.08
2023-05-25 06:01:00,,0829.9,5.00,0.00,29.8,28.1,00.0,38.2,31.3,22.8,0003.6,0013.68,0008.46,0008.08
2023-05-25 06:02:00,,0829.9,4.99,0.00,29.8,28.1,00.0,38.2,31.3,22.8,0003.6,0013.47,0008.47,0008.07
2023-05-25 06:03:00,,0830.0,5.00,0.00,29.8,28.1,00.0,38.2,31.3,22.9,0003.4,0013.32,0008.48,0008.05
2023-05-25 06:04:00,,0829.9,4.99,0.00,29.8,28.1,00.0,38.2,31.4,22.9,0003.5,0013.26,0008.46,0008.02
2023-05-25 06:05:00,,0829.9,5.00,0.00,29.8,28.1,00.0,38.2,31.3,22.9,0003.7,0013.03,0008.45,0008.00
2023-05-25 06:06:00,,0829.9,5.00,0.00,29.8,28.1,00.0,38.2,31.3,22.9,0003.6,0013.09,0008.46,0007.97
2023-05-25 06:07:00,,0829.8,5.00,0.00,29.8,28.1,00.0,38.2,31.3,22.9,0003.6,0013.09,0008.47,0007.98
2023-05-25 06:08:00,,0829.9,5.00,0.00,29.8,28.1,00.0,38.2,31.3,22.8,0003.7,0013.07,0008.46,0007.96
2023-05-25 06:09:00,,0829.8,5.01,0.00,29.8,28.1,00.0,38.2,31.3,22.9,0003.7,0013.01,0008.46,0007.95
2023-05-25 06:10:00,,0829.8,5.01,0.00,29.8,28.0,00.0,38.2,31.3,22.9,0003.9,0012.81,0008.44,0007.94
2023-05-25 06:11:00,,0829.7,5.00,0.00,29.8,28.0,00.0,38.2,31.3,22.9,0003.9,0013.12,0008.38,0007.90
2023-05-25 06:12:00,,0829.7,4.99,0.00,29.8,28.0,00.0,38.2,31.3,22.9,0003.8,0012.97,0008.31,0007.86
2023-05-25 06:13:00,,0829.7,4.99,0.00,29.8,28.0,00.0,38.2,31.3,22.9,0003.7,0012.88,0008.27,0007.83
2023-05-25 06:14:00,,0829.7,5.00,0.00,29.7,28.0,00.0,38.2,31.3,22.9,0003.8,0012.88,0008.24,0007.79
2023-05-25 06:15:00,,0829.7,5.01,0.00,29.7,28.0,00.0,38.2,31.3,23.0,0003.7,0012.93,0008.23,0007.78
2023-05-25 06:16:00,,0829.7,5.01,0.00,29.7,28.0,00.0,38.2,31.3,23.1,0003.7,0012.89,0008.20,0007.76
2023-05-25 06:17:00,,0829.7,5.01,0.00,29.7,28.0,00.0,38.2,31.3,23.0,0003.8,0012.80,0008.15,0007.73
2023-05-25 06:18:00,,0829.7,5.00,0.00,29.7,28.0,00.0,38.1,31.3,23.0,0003.7,0012.70,0008.07,0007.66
2023-05-25 06:19:00,,0829.7,5.00,0.00,29.7,28.0,00.0,38.1,31.3,23.1,0003.7,0012.67,0008.05,0007.62
2023-05-25 06:20:00,,0829.7,5.00,0.00,29.7,28.0,00.0,38.1,31.3,23.1,0003.6,0012.64,0008.02,0007.59
2023-05-25 06:21:00,,0829.7,5.00,0.00,29.7,28.0,00.0,38.1,31.3,23.1,0003.7,0012.50,0008.00,0007.57
2023-05-25 06:22:00,,0829.7,5.00,0.00,29.7,28.0,00.0,38.1,31.3,23.1,0003.6,0012.02,0008.02,0007.55
2023-05-25 06:23:00,,0829.7,5.00,0.00,29.7,28.0,00.0,38.1,31.3,23.1,0003.7,0012.09,0008.03,0007.54
2023-05-25 06:24:00,,0829.6,5.00,0.00,29.7,28.0,00.0,38.1,31.2,23.1,0003.6,0012.52,0008.00,0007.52
2023-05-25 06:25:00,,0829.6,5.01,0.00,29.7,27.9,00.0,38.1,31.2,23.3,0003.5,0012.74,0007.98,0007.51
2023-05-25 06:26:00,,0829.6,5.00,0.00,29.7,27.9,00.0,38.1,31.2,23.3,0003.6,0012.67,0007.95,0007.49
2023-05-25 06:27:00,,0829.6,5.01,0.00,29.6,27.8,00.0,38.1,31.1,23.3,0003.5,0012.68,0007.94,0007.47
2023-05-25 06:28:00,,0829.6,5.00,0.00,29.6,27.8,00.0,38.1,31.1,23.4,0003.5,0012.60,0007.89,0007.45
2023-05-25 06:29:00,,0829.5,5.01,0.00,29.6,27.7,00.0,38.1,31.1,23.4,0003.7,0012.78,0007.89,0007.45
2023-05-25 06:30:00,,0829.4,5.00,0.00,29.6,27.7,00.0,38.1,31.1,23.6,0003.7,0012.90,0007.87,0007.43
2023-05-25 06:31:00,,0829.4,5.00,0.00,29.6,27.6,00.0,38.0,31.1,23.6,0003.7,0012.81,0007.82,0007.41
2023-05-25 06:32:00,,0829.3,5.00,0.00,29.5,27.6,00.0,38.0,31.0,23.7,0003.5,0012.84,0007.81,0007.38
2023-05-25 06:33:00,,0829.4,5.00,0.00,29.5,27.6,00.0,38.0,31.0,23.6,0003.4,0012.85,0007.80,0007.38
2023-05-25 06:34:00,,0829.4,4.99,0.00,29.5,27.5,00.0,38.0,30.9,23.6,0003.4,0013.44,0007.75,0007.34
2023-05-25 06:35:00,,0829.4,5.00,0.00,29.4,27.4,00.0,38.0,30.9,23.5,0003.4,0013.18,0007.72,0007.29
2023-05-25 06:36:00,,0829.4,5.00,0.00,29.4,27.4,00.0,38.0,30.9,23.5,0003.6,0012.92,0007.72,0007.26
2023-05-25 06:37:00,,0829.3,5.00,0.00,29.4,27.4,00.0,37.9,30.9,23.2,0003.5,0012.83,0007.67,0007.21
2023-05-25 06:38:00,,0829.3,5.01,0.00,29.4,27.3,00.0,37.9,30.8,23.0,0003.6,0012.74,0007.61,0007.15
2023-05-25 06:39:00,,0829.3,5.01,0.00,29.3,27.3,00.0,37.9,30.9,22.9,0003.7,0012.66,0007.55,0007.11
2023-05-25 06:40:00,,0829.3,5.00,0.00,29.3,27.4,00.0,37.9,30.9,23.0,0003.6,0012.44,0007.51,0007.07
2023-05-25 06:41:00,,0829.2,5.00,0.00,29.3,27.4,00.0,37.9,30.9,23.1,0003.6,0012.22,0007.46,0007.03
2023-05-25 06:42:00,,0829.2,5.00,0.00,29.3,27.5,00.0,37.9,30.9,23.1,0003.6,0012.23,0007.45,0007.00
2023-05-25 06:43:00,,0829.2,4.99,0.00,29.3,27.5,00.0,37.8,30.9,22.9,0003.6,0012.17,0007.42,0006.95
2023-05-25 06:44:00,,0829.2,4.99,0.00,29.3,27.6,00.0,37.8,30.9,22.8,0003.7,0012.08,0007.36,0006.90
2023-05-25 06:45:00,,0829.2,5.00,0.00,29.3,27.5,00.0,37.8,30.9,22.8,0003.8,0011.35,0007.29,0006.85
2023-05-25 06:46:00,,0829.2,5.00,0.00,29.3,27.5,00.0,37.8,30.9,22.9,0004.0,0011.03,0007.23,0006.81
2023-05-25 06:47:00,,0829.2,5.00,0.00,29.3,27.5,00.0,37.8,30.8,23.0,0003.8,0010.72,0007.13,0006.76
2023-05-25 06:48:00,,0829.2,4.99,0.00,29.3,27.4,00.0,37.8,30.8,23.2,0003.7,0010.63,0007.10,0006.73
2023-05-25 06:49:00,,0829.1,5.00,0.00,29.3,27.4,00.0,37.8,30.8,23.3,0003.6,0010.61,0007.10,0006.75
2023-05-25 06:50:00,,0829.1,5.01,0.00,29.3,27.4,00.0,37.8,30.8,23.0,0003.4,0010.57,0007.08,0006.73
2023-05-25 06:51:00,,0829.1,5.00,0.00,29.3,27.4,00.0,37.8,30.8,22.6,0003.4,0010.50,0007.03,0006.68
2023-05-25 06:52:00,,0829.1,5.01,0.00,29.3,27.4,00.0,37.7,30.8,22.6,0003.5,0010.50,0007.00,0006.64
2023-05-25 06:53:00,,0829.1,5.01,0.00,29.2,27.4,00.0,37.7,30.8,22.6,0003.4,0010.41,0006.94,0006.59
2023-05-25 06:54:00,,0829.1,5.00,0.00,29.2,27.4,00.0,37.7,30.8,22.5,0003.3,0010.35,0006.87,0006.54
2023-05-25 06:55:00,,0829.1,4.99,0.00,29.2,27.4,00.0,37.7,30.8,22.2,0003.1,0010.38,0006.82,0006.49
2023-05-25 06:56:00,,0829.1,5.00,0.00,29.2,27.5,00.0,37.7,30.8,22.0,0003.0,0010.36,0006.78,0006.43
2023-05-25 06:57:00,,0829.1,5.00,0.00,29.2,27.5,00.0,37.7,30.8,22.0,0003.0,0010.32,0006.73,0006.37
2023-05-25 06:58:00,,0829.0,5.00,0.00,29.2,27.4,00.0,37.7,30.8,22.1,0003.2,0010.22,0006.66,0006.30
2023-05-25 06:59:00,,0829.0,5.01,0.00,29.2,27.4,00.0,37.7,30.8,22.1,0003.2,0010.12,0006.58,0006.22
